Weather History for KBCE - May, 2013

Change the Weather History Date:

Thursday, May 16, 2013

  Actual Average Record
Temperature  
Mean Temperature 54 °F -  
Max Temperature 71 °F 63 °F 76 °F (1988)
Min Temperature 39 °F 32 °F 16 °F (1962)
Degree Days  
Heating Degree Days 11    
Growing Degree Days 4 (Base 50)    
Moisture  
Dew Point 24 °F    
Average Humidity 33    
Maximum Humidity 65    
Minimum Humidity 15    
Precipitation  
Precipitation 0.00 in - - ()
Sea Level Pressure  
Sea Level Pressure 29.78 in    
Wind  
Wind Speed 7 mph (SSW)    
Max Wind Speed 17 mph    
Max Gust Speed 25 mph    
Visibility 10 miles    
Events      
Averages and records for this station are not official NWS values.
T = Trace of Precipitation, MM = Missing Value Source: NWS Daily Summary

Daily Weather History Graph

Daily Weather History Graph

Search for Another Location

Airport or City:

Trip Planner

Search our weather history database for the weather conditions in past years. The results will help you decide how hot, cold, wet, or windy it might be!

Date:

Astronomy

May. 16, 2013 Rise Set
Actual Time 6:17 AM MDT 8:32 PM MDT
Civil Twilight 5:48 AM MDT 9:02 PM MDT
Nautical Twilight 5:12 AM MDT 9:38 PM MDT
Astronomical Twilight 4:32 AM MDT 10:18 PM MDT
Moon 11:52 AM MDT (5/16) 12:57 AM MDT (5/16)
Length of Visible Light 15h 13m
Length of Day
14h 14m
Waxing Crescent, 36% of the Moon is Illuminated
May 16
Waxing Crescent
May 17
First Quarter
May 24
Full
May 31
Last Quarter
Jun 8
New

Hourly Weather History & Observations

Time (MDT) Temp. Windchill Dew Point Humidity Pressure Visibility Wind Dir Wind Speed Gust Speed Precip Events Conditions
12:53 AM 44.1 °F 40.8 °F 26.1 °F 49% 29.81 in 10.0 mi ENE 5.8 mph - N/A   Clear
1:53 AM 43.0 °F - 26.1 °F 51% 29.80 in 10.0 mi Calm Calm - N/A   Clear
2:53 AM 39.9 °F - 28.9 °F 65% 29.81 in 10.0 mi Calm Calm - N/A   Partly Cloudy
3:53 AM 39.0 °F 36.8 °F 28.0 °F 65% 29.81 in 10.0 mi NW 3.5 mph - N/A   Clear
4:53 AM 44.1 °F 40.8 °F 28.9 °F 55% 29.79 in 10.0 mi ENE 5.8 mph - N/A   Clear
5:53 AM 39.0 °F - 28.0 °F 65% 29.82 in 10.0 mi Calm Calm - N/A   Clear
6:53 AM 44.1 °F 41.5 °F 28.9 °F 55% 29.81 in 10.0 mi East 4.6 mph - N/A   Clear
7:53 AM 53.1 °F - 30.9 °F 43% 29.80 in 10.0 mi Calm Calm - N/A   Clear
8:53 AM 59.0 °F - 27.0 °F 29% 29.81 in 10.0 mi SE 10.4 mph - N/A   Clear
9:53 AM 62.1 °F - 27.0 °F 26% 29.81 in 10.0 mi SE 10.4 mph - N/A   Clear
10:53 AM 64.0 °F - 26.1 °F 24% 29.83 in 10.0 mi ESE 9.2 mph - N/A   Mostly Cloudy
11:36 AM 66.2 °F - 24.8 °F 21% 30.11 in 10.0 mi WSW 17.3 mph 21.9 mph N/A   Partly Cloudy
11:53 AM 66.0 °F - 25.0 °F 21% 29.77 in 10.0 mi WSW 17.3 mph 23.0 mph N/A   Clear
12:53 PM 66.9 °F - 24.1 °F 20% 29.79 in 10.0 mi SSW 15.0 mph 25.3 mph N/A   Clear
1:53 PM 69.1 °F - 24.1 °F 18% 29.77 in 10.0 mi South 15.0 mph 24.2 mph N/A   Clear
2:53 PM 68.0 °F - 21.9 °F 17% 29.77 in 10.0 mi South 15.0 mph 24.2 mph N/A   Clear
4:53 PM 68.0 °F - 21.0 °F 17% 29.72 in 10.0 mi SW 17.3 mph 23.0 mph N/A   Clear
5:53 PM 66.9 °F - 18.0 °F 15% 29.73 in 10.0 mi SSW 16.1 mph 24.2 mph N/A   Clear
6:53 PM 64.9 °F - 21.9 °F 19% 29.70 in 10.0 mi SW 11.5 mph - N/A   Clear
7:53 PM 61.0 °F - 21.0 °F 21% 29.69 in 10.0 mi West 9.2 mph - N/A   Clear
8:53 PM 55.9 °F - 16.0 °F 21% 29.70 in 10.0 mi West 5.8 mph - N/A   Clear
9:53 PM 55.9 °F - 14.0 °F 19% 29.69 in 10.0 mi Calm Calm - N/A   Clear
10:53 PM 51.1 °F - 17.1 °F 26% 29.72 in 10.0 mi ENE 3.5 mph - N/A   Clear
11:53 PM 46.0 °F 44.8 °F 21.0 °F 37% 29.73 in 10.0 mi West 3.5 mph - N/A   Clear